Regional Weather Roundup
Issued by NWS

Home | Current Version | Previous Version | Graphics & Text | Print | Product List | Glossary On
Versions: 1 2 3 4 5 6 7 8 9 10 11 12 13 14 15 16 17 18 19 20 21 22 23 24 25 26 27 28 29 30 31 32 33 34 35 36 37 38 39 40 41 42 43 44 45 46 47 48 49 50
000
ASUS43 KLOT 280810
RWRIL

ILLINOIS REGIONAL WEATHER ROUNDUP
NATIONAL WEATHER SERVICE CHICAGO/ROMEOVILLE IL
200 AM CST SAT FEB 28 2015

NOTE: "FAIR" INDICATES FEW OR NO CLOUDS BELOW 12,000 FEET WITH NO
SIGNIFICANT WEATHER AND/OR OBSTRUCTIONS TO VISIBILITY.

* THESE STATIONS ARE NOT UNDER NWS QUALITY CONTROL. THEY ALSO MAY NOT
  REPORT WEATHER SUCH AS PRECIPITATION OR FOG.

ILZ001-002-007-009-015-016-024-280900-
NORTHWEST ILLINOIS

CITY           SKY/WX    TMP DP  RH WIND       PRES   REMARKS
MOLINE         PTCLDY   -16 -22  74 CALM      30.67S
STERLING*      MOCLDY   -17 -24  70 CALM      30.66R
SAVANNA*       PTCLDY   -13 -19  76 CALM      30.67S
$$

ILZ003-004-008-010-011-017-018-280900-
NORTH CENTRAL ILLINOIS

CITY           SKY/WX    TMP DP  RH WIND       PRES   REMARKS
ROCKFORD       MOCLDY   -11 -17  75 CALM      30.67S
FREEPORT*      MOCLDY   -11 -16  80 CALM      30.66S
ROCHELLE*      MOCLDY   -14 -18  84 CALM      30.66S
DE KALB*       PTCLDY    -2  -8  76 CALM      30.65S
PERU*          MOCLDY    -5 -10  79 CALM      30.68S
$$

ILZ005-006-012>014-019>023-280900-
NORTHEAST ILLINOIS

CITY           SKY/WX    TMP DP  RH WIND       PRES   REMARKS
CHICAGO-OHARE  CLEAR     -5  -9  83 CALM      30.67R
CHICAGO-MIDWAY CLEAR      4  -5  66 SW3       30.69S
AURORA         PTCLDY   -13 -19  75 CALM      30.68R
LANSING*       PTCLDY    -7 -12  81 CALM      30.69S
JOLIET*        PTCLDY    -8 -12  82 CALM      30.69S
WAUKEGAN       PTCLDY    -3  -8  79 SW5       30.65S WCI -13
DUPAGE AIRPORT PTCLDY    -8 -12  83 CALM      30.66S
KANKAKEE*      PTCLDY    -3  -7  84 CALM      30.69S
WHEELING       CLEAR      1  -6  72 CALM      30.69R
MORRIS*        PTCLDY    -8 -11  86 CALM      30.68S
ROMEOVILLE*    PTCLDY    -2  -6  80 CALM      30.68S
NORTHERLY ISL    N/A      8  -1  66 W5          N/A  WCI   0
$$

LMZ740>746-280900-
SOUTHERN LAKE MICHIGAN

STATION/POSITION SKY/WX   TEMP    WIND        PRES    VSBY  WAVE
                          AIR SEA DIR/SP/G                  HT/PER
                          (F)     (DEG/KT/KT) (MB)    (MI)  (FT/S)
WAUKEGAN HARBOR             4     240/  5/  9   N/A
HARRISON CRIB               9     260/ 10/ 14   N/A
BURNHAM HARBOR              8     270/  4/  8   N/A
CALUMET HARBOR              4     340/  3/  4 1037.7S
MICHIGAN CITY               4     170/  5/  6   N/A
$$

ILZ025>027-034>036-040-047-049-050-058-095>099-280900-
WEST-CENTRAL ILLINOIS

CITY           SKY/WX    TMP DP  RH WIND       PRES   REMARKS
QUINCY         CLOUDY     7  -3  64 E6        30.62S WCI  -3
GALESBURG*     PTCLDY    -3  -6  86 E3        30.64S
MACOMB*        PTCLDY    -6 -10  82 CALM      30.67S
JACKSONVILLE*  PTCLDY     6  -2  71 CALM      30.65S
PITTSFIELD*    PTCLDY     9   1  70 CALM      30.64F
$$

ILZ028>032-037-038-041>044-048-051>054-059>061-280900-
CENTRAL ILLINOIS

CITY           SKY/WX    TMP DP  RH WIND       PRES   REMARKS
PONTIAC        PTCLDY    -1  -5  84 E3        30.68F
BLOOMINGTON    MOCLDY     3  -2  80 SE3       30.65F
DECATUR        PTCLDY     2  -3  80 E3        30.66S
PEORIA         PTCLDY     4  -2  76 NE5       30.67S WCI  -5
LACON*         PTCLDY    -6 -10  81 CALM      30.67S
LINCOLN*       CLEAR      9   3  75 CALM      30.70S
SPRINGFIELD    PTCLDY     7   0  73 E3        30.66S
TAYLORVILLE    MOCLDY     9   0  66 E3        30.66S
$$

ILZ033-039-045-046-055>057-062-063-280900-
EAST-CENTRAL ILLINOIS

CITY           SKY/WX    TMP DP  RH WIND       PRES   REMARKS
CHAMPAIGN      PTCLDY     4  -3  73 E7        30.65S WCI  -8
DANVILLE*      CLEAR      2  -3  77 E5        30.65R WCI  -7
RANTOUL*       MOCLDY     6   0  75 E5        30.66S WCI  -3
MATTOON        PTCLDY     5  -3  69 CALM      30.65S
PARIS*         PTCLDY     0  -3  85 CALM      30.68S
$$

ILZ079-100>102-280900-
SOUTHWEST ILLINOIS

CITY           SKY/WX    TMP DP  RH WIND       PRES   REMARKS
ALTON          MOCLDY    12  -1  56 CALM      30.66S
BELLEVILLE     CLOUDY    15   4  64 NE5       30.65S WCI   7
CAHOKIA*       CLOUDY    16   4  59 NE5       30.66S WCI   9
SPARTA*        CLOUDY    16   7  66 E8        30.65R WCI   5
$$

ILZ064>066-069>071-074>076-080>082-084>086-088>090-092>094-280900-
SOUTH-CENTRAL ILLINOIS

CITY           SKY/WX    TMP DP  RH WIND       PRES   REMARKS
CARBONDALE     MOCLDY    18   7  62 NE9       30.63S WCI   7
CAIRO*         MOCLDY    23  13  67 NE7       30.61F WCI  14
EFFINGHAM*     CLOUDY     8  -2  61 CALM      30.68R
MARION         MOCLDY    19   9  63 NE6       30.64R WCI  11
MT. VERNON     CLOUDY    14   1  57 NE8       30.64F WCI   3
CENTRALIA*     CLOUDY    13   3  63 E7        30.65S WCI   3
SALEM*         CLOUDY    14   2  60 E5        30.66S WCI   6
METROPOLIS*    CLOUDY    21  13  71 NE5       30.60F WCI  14
$$

ILZ067-068-072-073-078-083-087-091-280900-
SOUTHEAST ILLINOIS

CITY           SKY/WX    TMP DP  RH WIND       PRES   REMARKS
LAWRENCEVILLE  PTCLDY    11   1  64 NE9       30.67S WCI  -2
FLORA*         CLOUDY    10   1  66 N3        30.67S
FAIRFIELD*     PTCLDY    13   4  66 N6        30.65S WCI   4
HARRISBURG*    MOCLDY    18   9  68 NE8       30.65F WCI   7
ROBINSON*      PTCLDY     7   1  73 NE6       30.68F WCI  -3
CARMI*         CLEAR     19  11  72 NE7       30.64F WCI   9
$$

ABBREVIATIONS USED IN REMARKS
   TC - TEMPERATURE IN CELSIUS
  WCI - WIND CHILL INDEX
   HX - HEAT INDEX
  VSB - VISIBILITY
$$




USA.gov is the U.S. government's official web portal to all federal, state and local government web resources and services.